QPF
0.01 0.01 0.01 0.01 0.00 0.00 0.00 0.00 0.00 0.01 0.01 0.01 0.00 0.00 0.00 0.01 0.00 0.00 0.01 0.00 0.00 0.00 0.00 0.00 0.00 0.00 0.00 0.00 0.00 0.00 0.00 0.00 0.00 0.00 0.00 0.00 0.01 0.01
0.02 0.01 0.01 0.00 0.00 0.00 0.00 0.00 0.00 0.00 0.00 0.00 0.00 0.00 0.00 0.00 0.00 0.00 0.00 0.00 0.00 0.00 0.00 0.00 0.00 0.00 0.00 0.00 0.00 0.00 0.00 0.00 0.00 0.00 0.00 0.00 0.00 0.00
0.01 0.01 0.00 0.00 0.00 0.00 0.00 0.00 0.00 0.00 0.00 0.00 0.00 0.00 0.00 0.00 0.00 0.00 0.00 0.00 0.00 0.00 0.00 0.00 0.00 0.00 0.00 0.00 0.00 0.00 0.00 0.00 0.00 0.00 0.00 0.00 0.00 0.00
0.01 0.01 0.00 0.00 0.00 0.00 0.00 0.00 0.00 0.00 0.00 0.00 0.00 0.00 0.00 0.00 0.00 0.00 0.00 0.00 0.00 0.00 0.00 0.00 0.00 0.00 0.00 0.00 0.00 0.00 0.00 0.00 0.00 0.00 0.00 0.00 0.00 0.00
0.00 0.01 0.00 0.00 0.00 0.00 0.00 0.00 0.00 0.00 0.00 0.00 0.00 0.00 0.00 0.00 0.00 0.00 0.00 0.00 0.00 0.00 0.00 0.00 0.00 0.00 0.00 0.00 0.00 0.00 0.00 0.00 0.00 0.00 0.00 0.00 0.00 0.00
0.00 0.00 0.00 0.00 0.00 0.00 0.00 0.00 0.00 0.00 0.00 0.00 0.00 0.00 0.00 0.00 0.01 0.00 0.00 0.00 0.00 0.00 0.00 0.00 0.00 0.00 0.00 0.00 0.00 0.00 0.00 0.00 0.00 0.00 0.00 0.00 0.00 0.00
0.00 0.00 0.00 0.00 0.00 0.00 0.00 0.00 0.00 0.00 0.00 0.00 0.00 0.01 0.01 0.02 0.01 0.01 0.01 0.01 0.00 0.00 0.00 0.00 0.00 0.00 0.00 0.00 0.00 0.00 0.00 0.00 0.00 0.00 0.00 0.00 0.00 0.00
0.01 0.01 0.01 0.00 0.00 0.00 0.00 0.00 0.00 0.00 0.00 0.00 0.00 0.01 0.01 0.02 0.02 0.01 0.01 0.01 0.01 0.00 0.00 0.00 0.00 0.00 0.00 0.00 0.00 0.00 0.00 0.00 0.00 0.00 0.00 0.00 0.00 0.00
0.02 0.01 0.01 0.01 0.01 0.01 0.00 0.00 0.00 0.00 0.00 0.00 0.00 0.00 0.01 0.02 0.03 0.02 0.02 0.02 0.01 0.01 0.01 0.00 0.00 0.00 0.00 0.00 0.00 0.00 0.00 0.00 0.00 0.00 0.00 0.00 0.00 0.00
0.01 0.01 0.02 0.03 0.02 0.01 0.01 0.01 0.01 0.01 0.01 0.01 0.01 0.01 0.01 0.02 0.02 0.02 0.02 0.02 0.01 0.01 0.02 0.01 0.00 0.00 0.00 0.00 0.00 0.00 0.00 0.00 0.00 0.00 0.00 0.00 0.00 0.00
0.01 0.02 0.03 0.03 0.04 0.02 0.02 0.02 0.03 0.03 0.02 0.02 0.01 0.01 0.01 0.01 0.01 0.01 0.01 0.01 0.00 0.00 0.01 0.01 0.01 0.01 0.00 0.00 0.00 0.00 0.00 0.00 0.00 0.00 0.00 0.00 0.00 0.00
0.02 0.02 0.03 0.03 0.03 0.03 0.03 0.04 0.04 0.03 0.03 0.03 0.02 0.01 0.01 0.01 0.00 0.00 0.00 0.01 0.01 0.01 0.00 0.01 0.01 0.01 0.01 0.00 0.00 0.00 0.00 0.01 0.01 0.01 0.01 0.00 0.00 0.00
0.03 0.04 0.04 0.03 0.03 0.02 0.02 0.02 0.02 0.02 0.02 0.02 0.02 0.02 0.01 0.01 0.01 0.01 0.01 0.01 0.01 0.01 0.01 0.02 0.02 0.01 0.01 0.01 0.00 0.00 0.00 0.01 0.01 0.01 0.01 0.02 0.02 0.02
0.04 0.04 0.03 0.03 0.03 0.02 0.02 0.02 0.02 0.02 0.02 0.02 0.01 0.01 0.01 0.01 0.01 0.01 0.02 0.02 0.02 0.01 0.01 0.02 0.03 0.02 0.02 0.01 0.01 0.01 0.01 0.01 0.01 0.01 0.02 0.03 0.04 0.04
0.06 0.06 0.04 0.04 0.03 0.03 0.03 0.03 0.02 0.02 0.02 0.01 0.01 0.01 0.01 0.01 0.01 0.01 0.02 0.02 0.02 0.01 0.01 0.02 0.03 0.03 0.04 0.03 0.02 0.02 0.02 0.02 0.02 0.03 0.04 0.04 0.04 0.05
0.06 0.05 0.05 0.04 0.03 0.03 0.03 0.02 0.02 0.02 0.01 0.01 0.01 0.01 0.01 0.01 0.02 0.01 0.01 0.02 0.02 0.01 0.01 0.02 0.03 0.05 0.04 0.04 0.04 0.03 0.03 0.03 0.03 0.04 0.05 0.05 0.05 0.06
0.07 0.06 0.06 0.05 0.04 0.03 0.03 0.03 0.03 0.03 0.03 0.03 0.02 0.02 0.03 0.02 0.02 0.02 0.02 0.03 0.03 0.02 0.02 0.02 0.03 0.04 0.05 0.05 0.05 0.04 0.04 0.03 0.03 0.04 0.06 0.06 0.04 0.04
0.06 0.05 0.05 0.05 0.04 0.03 0.03 0.03 0.03 0.04 0.04 0.04 0.04 0.04 0.03 0.03 0.03 0.03 0.03 0.03 0.03 0.03 0.03 0.03 0.04 0.04 0.04 0.04 0.04 0.05 0.05 0.04 0.03 0.04 0.05 0.06 0.04 0.03
0.03 0.03 0.03 0.03 0.03 0.03 0.03 0.03 0.02 0.03 0.03 0.03 0.03 0.02 0.02 0.02 0.02 0.02 0.02 0.03 0.03 0.03 0.03 0.03 0.04 0.05 0.05 0.03 0.02 0.03 0.04 0.03 0.03 0.03 0.04 0.06 0.06 0.04
0.01 0.01 0.02 0.02 0.02 0.02 0.02 0.02 0.02 0.01 0.01 0.01 0.02 0.02 0.02 0.02 0.02 0.02 0.03 0.03 0.03 0.02 0.02 0.02 0.04 0.05 0.06 0.04 0.03 0.02 0.02 0.03 0.04 0.04 0.03 0.03 0.03 0.02
0.02 0.02 0.02 0.02 0.02 0.02 0.01 0.01 0.01 0.01 0.01 0.02 0.02 0.02 0.02 0.03 0.03 0.03 0.03 0.03 0.03 0.03 0.03 0.03 0.03 0.03 0.04 0.05 0.04 0.03 0.02 0.02 0.03 0.04 0.03 0.04 0.03 0.02
0.02 0.02 0.03 0.02 0.02 0.03 0.03 0.02 0.02 0.02 0.02 0.02 0.03 0.03 0.03 0.04 0.04 0.04 0.03 0.04 0.03 0.03 0.03 0.03 0.04 0.05 0.06 0.07 0.05 0.04 0.02 0.02 0.02 0.02 0.02 0.03 0.03 0.03
0.02 0.02 0.02 0.02 0.02 0.02 0.02 0.03 0.03 0.03 0.02 0.02 0.03 0.03 0.03 0.04 0.03 0.03 0.03 0.03 0.04 0.04 0.05 0.05 0.04 0.04 0.04 0.05 0.05 0.03 0.03 0.03 0.03 0.02 0.03 0.03 0.02 0.01
MSLP
1016.17 1016.51 1016.81 1017.08 1017.28 1017.41 1017.45 1017.40 1017.26 1017.05 1016.81 1016.55 1016.31 1016.12 1016.01 1015.97 1016.03 1016.15 1016.34 1016.56 1016.80 1017.03 1017.23 1017.40 1017.52 1017.61 1017.67 1017.71 1017.75 1017.79 1017.85 1017.91 1017.98 1018.05 1018.10 1018.14 1018.16 1018.15
1015.92 1016.24 1016.53 1016.79 1016.99 1017.13 1017.20 1017.18 1017.09 1016.92 1016.72 1016.47 1016.24 1016.02 1015.86 1015.76 1015.73 1015.78 1015.88 1016.02 1016.19 1016.36 1016.53 1016.66 1016.77 1016.85 1016.91 1016.96 1017.02 1017.08 1017.15 1017.23 1017.32 1017.40 1017.47 1017.51 1017.53 1017.53
1015.66 1015.95 1016.21 1016.45 1016.65 1016.80 1016.90 1016.93 1016.89 1016.79 1016.63 1016.43 1016.21 1016.00 1015.80 1015.65 1015.54 1015.49 1015.50 1015.55 1015.63 1015.72 1015.82 1015.90 1015.97 1016.03 1016.08 1016.12 1016.17 1016.24 1016.32 1016.42 1016.52 1016.62 1016.71 1016.77 1016.81 1016.82
1015.38 1015.63 1015.86 1016.07 1016.26 1016.43 1016.55 1016.64 1016.67 1016.64 1016.55 1016.42 1016.24 1016.04 1015.83 1015.64 1015.47 1015.34 1015.25 1015.20 1015.17 1015.18 1015.19 1015.20 1015.21 1015.22 1015.23 1015.25 1015.28 1015.34 1015.42 1015.52 1015.63 1015.74 1015.85 1015.93 1015.99 1016.03
1015.07 1015.27 1015.46 1015.65 1015.83 1016.00 1016.16 1016.30 1016.40 1016.45 1016.45 1016.39 1016.27 1016.10 1015.90 1015.69 1015.48 1015.28 1015.11 1014.97 1014.85 1014.76 1014.68 1014.62 1014.55 1014.50 1014.45 1014.42 1014.41 1014.43 1014.48 1014.56 1014.67 1014.78 1014.90 1015.01 1015.09 1015.16
1014.72 1014.87 1015.03 1015.18 1015.35 1015.53 1015.72 1015.90 1016.06 1016.19 1016.27 1016.28 1016.23 1016.11 1015.94 1015.73 1015.51 1015.27 1015.04 1014.83 1014.64 1014.47 1014.31 1014.16 1014.02 1013.89 1013.77 1013.66 1013.59 1013.55 1013.56 1013.60 1013.68 1013.78 1013.90 1014.02 1014.13 1014.22
1014.33 1014.45 1014.57 1014.69 1014.84 1015.02 1015.22 1015.43 1015.64 1015.83 1015.97 1016.05 1016.06 1015.99 1015.86 1015.68 1015.46 1015.22 1014.97 1014.72 1014.49 1014.26 1014.04 1013.83 1013.61 1013.40 1013.20 1013.01 1012.86 1012.74 1012.67 1012.66 1012.69 1012.77 1012.87 1012.99 1013.11 1013.23
1013.93 1014.02 1014.11 1014.21 1014.34 1014.50 1014.70 1014.92 1015.15 1015.36 1015.54 1015.66 1015.72 1015.71 1015.62 1015.48 1015.28 1015.06 1014.82 1014.58 1014.33 1014.08 1013.83 1013.56 1013.29 1013.01 1012.73 1012.47 1012.22 1012.02 1011.87 1011.78 1011.75 1011.77 1011.85 1011.95 1012.08 1012.20
1013.56 1013.64 1013.71 1013.79 1013.90 1014.03 1014.20 1014.41 1014.62 1014.83 1015.02 1015.16 1015.24 1015.26 1015.21 1015.10 1014.95 1014.77 1014.57 1014.35 1014.12 1013.88 1013.61 1013.34 1013.03 1012.70 1012.36 1012.01 1011.68 1011.39 1011.15 1010.97 1010.87 1010.83 1010.86 1010.93 1011.04 1011.16
1013.27 1013.36 1013.42 1013.49 1013.57 1013.67 1013.80 1013.96 1014.14 1014.31 1014.47 1014.59 1014.67 1014.70 1014.67 1014.60 1014.49 1014.36 1014.20 1014.03 1013.84 1013.63 1013.39 1013.11 1012.80 1012.44 1012.05 1011.64 1011.23 1010.86 1010.53 1010.27 1010.08 1009.97 1009.94 1009.97 1010.04 1010.13
1013.09 1013.21 1013.29 1013.35 1013.41 1013.47 1013.56 1013.66 1013.77 1013.89 1013.99 1014.08 1014.13 1014.14 1014.12 1014.07 1013.99 1013.90 1013.78 1013.66 1013.53 1013.36 1013.15 1012.89 1012.58 1012.21 1011.79 1011.34 1010.87 1010.42 1010.01 1009.67 1009.40 1009.21 1009.10 1009.07 1009.09 1009.14
1013.05 1013.20 1013.30 1013.36 1013.41 1013.44 1013.48 1013.52 1013.57 1013.61 1013.66 1013.68 1013.69 1013.67 1013.64 1013.59 1013.53 1013.46 1013.39 1013.31 1013.21 1013.08 1012.91 1012.67 1012.37 1012.00 1011.56 1011.08 1010.57 1010.06 1009.58 1009.16 1008.81 1008.54 1008.35 1008.24 1008.19 1008.17
1013.11 1013.29 1013.42 1013.49 1013.53 1013.54 1013.54 1013.53 1013.53 1013.51 1013.49 1013.46 1013.42 1013.37 1013.31 1013.25 1013.18 1013.12 1013.07 1013.01 1012.93 1012.83 1012.68 1012.46 1012.17 1011.80 1011.35 1010.84 1010.30 1009.74 1009.21 1008.71 1008.29 1007.94 1007.67 1007.47 1007.34 1007.25
1013.21 1013.42 1013.56 1013.65 1013.69 1013.69 1013.67 1013.64 1013.59 1013.53 1013.47 1013.41 1013.33 1013.24 1013.16 1013.07 1012.99 1012.93 1012.86 1012.80 1012.73 1012.63 1012.48 1012.27 1011.97 1011.60 1011.14 1010.61 1010.04 1009.44 1008.85 1008.29 1007.79 1007.36 1007.01 1006.73 1006.51 1006.34
1013.28 1013.50 1013.65 1013.74 1013.79 1013.79 1013.77 1013.73 1013.68 1013.61 1013.54 1013.45 1013.36 1013.26 1013.15 1013.05 1012.95 1012.86 1012.78 1012.69 1012.60 1012.47 1012.31 1012.08 1011.77 1011.38 1010.91 1010.36 1009.75 1009.11 1008.47 1007.86 1007.29 1006.78 1006.34 1005.98 1005.68 1005.43
1013.27 1013.46 1013.60 1013.69 1013.74 1013.76 1013.76 1013.73 1013.70 1013.66 1013.60 1013.53 1013.44 1013.34 1013.23 1013.11 1012.99 1012.88 1012.76 1012.64 1012.50 1012.34 1012.14 1011.88 1011.54 1011.13 1010.62 1010.05 1009.41 1008.73 1008.04 1007.37 1006.73 1006.15 1005.63 1005.18 1004.80 1004.49
1013.14 1013.28 1013.39 1013.47 1013.52 1013.55 1013.58 1013.59 1013.60 1013.60 1013.59 1013.56 1013.50 1013.42 1013.32 1013.20 1013.07 1012.92 1012.77 1012.60 1012.42 1012.21 1011.96 1011.65 1011.28 1010.82 1010.28 1009.67 1008.99 1008.27 1007.53 1006.80 1006.09 1005.44 1004.85 1004.34 1003.89 1003.52
1012.91 1012.99 1013.05 1013.11 1013.16 1013.21 1013.27 1013.33 1013.39 1013.45 1013.49 1013.51 1013.49 1013.45 1013.36 1013.24 1013.10 1012.93 1012.74 1012.53 1012.30 1012.04 1011.74 1011.38 1010.96 1010.46 1009.88 1009.23 1008.51 1007.74 1006.95 1006.16 1005.39 1004.68 1004.02 1003.45 1002.96 1002.54
1012.67 1012.68 1012.70 1012.72 1012.76 1012.82 1012.91 1013.01 1013.12 1013.23 1013.32 1013.39 1013.41 1013.40 1013.33 1013.22 1013.07 1012.88 1012.66 1012.41 1012.14 1011.83 1011.47 1011.07 1010.60 1010.06 1009.44 1008.74 1007.98 1007.17 1006.33 1005.49 1004.68 1003.91 1003.21 1002.59 1002.06 1001.63
1012.51 1012.46 1012.43 1012.42 1012.46 1012.53 1012.63 1012.75 1012.90 1013.03 1013.16 1013.26 1013.30 1013.30 1013.24 1013.12 1012.96 1012.75 1012.50 1012.22 1011.91 1011.56 1011.17 1010.73 1010.22 1009.64 1008.99 1008.26 1007.46 1006.62 1005.74 1004.87 1004.02 1003.21 1002.48 1001.84 1001.29 1000.85
1012.51 1012.42 1012.36 1012.34 1012.36 1012.43 1012.54 1012.67 1012.82 1012.96 1013.09 1013.18 1013.22 1013.20 1013.12 1012.99 1012.80 1012.56 1012.29 1011.98 1011.64 1011.26 1010.84 1010.37 1009.84 1009.24 1008.57 1007.82 1007.01 1006.14 1005.25 1004.36 1003.49 1002.67 1001.93 1001.28 1000.74 1000.31
1012.71 1012.61 1012.54 1012.52 1012.54 1012.60 1012.70 1012.81 1012.94 1013.05 1013.14 1013.19 1013.19 1013.13 1013.01 1012.84 1012.61 1012.34 1012.03 1011.70 1011.33 1010.93 1010.50 1010.02 1009.48 1008.88 1008.21 1007.46 1006.65 1005.80 1004.92 1004.03 1003.18 1002.38 1001.65 1001.02 1000.49 1000.08
1013.09 1013.01 1012.96 1012.95 1012.97 1013.03 1013.09 1013.17 1013.25 1013.31 1013.33 1013.31 1013.24 1013.10 1012.92 1012.68 1012.40 1012.09 1011.74 1011.38 1011.00 1010.60 1010.16 1009.69 1009.17 1008.59 1007.94 1007.22 1006.45 1005.63 1004.79 1003.95 1003.14 1002.37 1001.68 1001.09 1000.60 1000.21
Thickness
5737 5737 5736 5738 5739 5739 5738 5734 5726 5718 5719 5726 5728 5730 5728 5725 5722 5718 5716 5714 5712 5710 5708 5706 5705 5703 5702 5700 5698 5697 5696 5695 5694 5693 5692 5691 5690 5689
5736 5735 5735 5736 5737 5737 5736 5735 5732 5725 5720 5725 5727 5729 5726 5724 5720 5717 5715 5713 5711 5710 5708 5706 5705 5703 5701 5699 5698 5696 5695 5693 5692 5691 5690 5689 5688 5687
5735 5734 5733 5733 5733 5733 5733 5732 5730 5727 5720 5722 5726 5726 5723 5720 5717 5715 5714 5712 5711 5710 5708 5706 5704 5702 5700 5699 5697 5695 5693 5692 5690 5689 5687 5686 5685 5684
5733 5732 5731 5731 5730 5729 5728 5728 5726 5725 5720 5716 5718 5719 5718 5718 5716 5713 5712 5712 5711 5711 5708 5706 5704 5702 5699 5697 5695 5694 5692 5690 5688 5687 5685 5683 5682 5681
5732 5730 5729 5728 5726 5725 5724 5724 5723 5722 5719 5715 5713 5716 5716 5715 5713 5711 5710 5709 5709 5709 5708 5705 5703 5700 5698 5696 5694 5692 5690 5688 5686 5684 5682 5680 5678 5677
5731 5730 5728 5727 5724 5722 5721 5719 5718 5716 5714 5711 5709 5710 5710 5712 5709 5705 5703 5705 5705 5705 5704 5702 5700 5698 5696 5694 5692 5690 5688 5685 5683 5680 5678 5676 5675 5673
5729 5728 5727 5725 5724 5721 5719 5716 5714 5711 5708 5706 5704 5704 5704 5703 5701 5701 5698 5698 5699 5699 5698 5697 5696 5694 5692 5690 5688 5686 5684 5682 5679 5677 5674 5672 5670 5668
5724 5724 5723 5722 5719 5717 5715 5712 5709 5705 5703 5700 5698 5697 5697 5697 5696 5693 5690 5688 5686 5691 5688 5688 5688 5687 5686 5685 5685 5683 5680 5677 5674 5672 5669 5667 5665 5663
5721 5720 5720 5721 5718 5714 5711 5708 5704 5702 5698 5695 5692 5690 5690 5690 5687 5684 5682 5679 5677 5680 5678 5677 5679 5678 5679 5679 5677 5675 5673 5670 5668 5666 5663 5661 5659 5657
5719 5717 5715 5715 5715 5711 5707 5704 5701 5698 5695 5692 5690 5688 5687 5684 5681 5677 5674 5673 5674 5674 5671 5666 5669 5669 5671 5670 5668 5666 5664 5662 5660 5658 5656 5654 5652 5650
5715 5715 5713 5710 5708 5705 5701 5698 5695 5694 5692 5690 5688 5685 5681 5678 5674 5669 5665 5662 5661 5663 5664 5659 5659 5659 5660 5659 5658 5657 5655 5652 5650 5648 5646 5644 5642 5640
5710 5709 5708 5705 5702 5698 5694 5691 5687 5686 5684 5683 5679 5677 5674 5671 5667 5662 5658 5653 5651 5651 5653 5649 5648 5646 5645 5648 5647 5645 5643 5642 5640 5637 5635 5633 5630 5626
5705 5704 5702 5699 5694 5691 5688 5685 5681 5678 5676 5674 5671 5670 5667 5665 5662 5658 5653 5648 5643 5641 5643 5639 5635 5632 5629 5632 5633 5632 5630 5629 5627 5626 5623 5621 5618 5613
5699 5698 5695 5692 5687 5683 5680 5677 5673 5669 5667 5664 5662 5660 5658 5656 5653 5650 5647 5642 5638 5634 5632 5628 5622 5619 5616 5616 5617 5618 5617 5615 5613 5612 5610 5608 5605 5602
5690 5688 5684 5682 5678 5674 5670 5667 5663 5660 5657 5655 5653 5651 5649 5646 5644 5640 5637 5634 5630 5627 5623 5620 5615 5610 5606 5602 5602 5602 5601 5600 5598 5596 5595 5593 5592 5590
5679 5676 5673 5670 5668 5665 5661 5657 5653 5651 5649 5645 5643 5641 5639 5636 5633 5629 5626 5623 5619 5617 5615 5611 5606 5601 5596 5593 5589 5588 5586 5584 5583 5581 5579 5579 5578 5577
5670 5667 5664 5661 5658 5655 5653 5650 5646 5642 5638 5635 5632 5629 5626 5624 5621 5619 5615 5611 5607 5604 5602 5600 5597 5592 5587 5581 5578 5576 5574 5572 5570 5568 5565 5565 5567 5565
5660 5658 5655 5653 5650 5647 5643 5640 5636 5632 5628 5624 5621 5618 5615 5613 5610 5607 5604 5599 5596 5593 5590 5587 5584 5581 5577 5574 5568 5565 5563 5560 5559 5556 5553 5552 5555 5557
5649 5647 5645 5643 5640 5636 5633 5630 5626 5623 5619 5615 5611 5608 5605 5602 5598 5595 5591 5587 5584 5581 5578 5574 5570 5565 5561 5561 5561 5554 5550 5549 5547 5546 5545 5543 5544 5548
5639 5637 5634 5632 5629 5625 5622 5618 5615 5612 5609 5605 5602 5599 5594 5591 5587 5583 5579 5575 5571 5568 5565 5562 5558 5553 5548 5547 5549 5548 5543 5539 5538 5537 5538 5538 5539 5542
5629 5626 5623 5620 5616 5612 5609 5606 5603 5599 5596 5593 5590 5587 5583 5579 5574 5570 5566 5563 5558 5555 5552 5550 5547 5544 5541 5539 5537 5539 5538 5534 5531 5530 5531 5531 5532 5535
5617 5613 5610 5606 5603 5599 5595 5592 5589 5586 5583 5580 5576 5572 5569 5565 5561 5557 5553 5549 5546 5544 5541 5540 5538 5535 5532 5528 5528 5529 5530 5530 5529 5528 5527 5526 5524 5527
5603 5599 5596 5592 5589 5585 5581 5577 5574 5571 5569 5565 5562 5558 5555 5551 5548 5544 5541 5538 5535 5532 5530 5528 5527 5525 5523 5521 5520 5521 5522 5523 5523 5524 5526 5526 5524 5525